owner,sensor,date,latitude,longitude,sea_surface_height_above_sea_level,qcFlag 
TCOON,ioos:station:TCOON:013:1,2017-10-01T00:18:00Z,27.4847,-97.3181,0.943,1111122 
TCOON,ioos:station:TCOON:013:1,2017-10-01T01:18:00Z,27.4847,-97.3181,0.932,1111122 
TCOON,ioos:station:TCOON:013:1,2017-10-01T02:18:00Z,27.4847,-97.3181,0.922,1111122 
TCOON,ioos:station:TCOON:013:1,2017-10-01T03:18:00Z,27.4847,-97.3181,0.916,1111122 
TCOON,ioos:station:TCOON:013:1,2017-10-01T04:18:00Z,27.4847,-97.3181,0.916,1111122 
TCOON,ioos:station:TCOON:013:1,2017-10-01T05:18:00Z,27.4847,-97.3181,0.914,1111122 
TCOON,ioos:station:TCOON:013:1,2017-10-01T06:18:00Z,27.4847,-97.3181,0.913,1111122 
TCOON,ioos:station:TCOON:013:1,2017-10-01T07:18:00Z,27.4847,-97.3181,0.917,1111122 
TCOON,ioos:station:TCOON:013:1,2017-10-01T08:18:00Z,27.4847,-97.3181,0.92,1111122 
TCOON,ioos:station:TCOON:013:1,2017-10-01T09:18:00Z,27.4847,-97.3181,0.927,1111122 
TCOON,ioos:station:TCOON:013:1,2017-10-01T10:18:00Z,27.4847,-97.3181,0.938,1111122 
TCOON,ioos:station:TCOON:013:1,2017-10-01T11:18:00Z,27.4847,-97.3181,0.941,1111122 
TCOON,ioos:station:TCOON:013:1,2017-10-01T12:18:00Z,27.4847,-97.3181,0.952,1111122 
TCOON,ioos:station:TCOON:013:1,2017-10-01T13:18:00Z,27.4847,-97.3181,0.958,1111122 
TCOON,ioos:station:TCOON:013:1,2017-10-01T14:18:00Z,27.4847,-97.3181,0.963,1111122 
TCOON,ioos:station:TCOON:013:1,2017-10-01T15:18:00Z,27.4847,-97.3181,0.969,1111122 
TCOON,ioos:station:TCOON:013:1,2017-10-01T16:18:00Z,27.4847,-97.3181,0.967,1111122 
TCOON,ioos:station:TCOON:013:1,2017-10-01T17:18:00Z,27.4847,-97.3181,0.966,1111122 
TCOON,ioos:station:TCOON:013:1,2017-10-01T18:18:00Z,27.4847,-97.3181,0.962,1111122 
TCOON,ioos:station:TCOON:013:1,2017-10-10T05:30:00Z,27.4847,-97.3181,1.135,1111122 
TCOON,ioos:station:TCOON:013:1,2017-10-10T06:18:00Z,27.4847,-97.3181,1.141,1111122 
TCOON,ioos:station:TCOON:013:1,2017-10-10T07:18:00Z,27.4847,-97.3181,1.15,1111122 
TCOON,ioos:station:TCOON:013:1,2017-10-10T08:18:00Z,27.4847,-97.3181,1.16,1111122 
TCOON,ioos:station:TCOON:013:1,2017-10-10T09:18:00Z,27.4847,-97.3181,1.168,1111122 
TCOON,ioos:station:TCOON:013:1,2017-10-10T10:18:00Z,27.4847,-97.3181,1.173,1111122 
TCOON,ioos:station:TCOON:013:1,2017-10-10T11:18:00Z,27.4847,-97.3181,1.173,1111122 
TCOON,ioos:station:TCOON:013:1,2017-10-10T12:18:00Z,27.4847,-97.3181,1.177,1111122 
TCOON,ioos:station:TCOON:013:1,2017-10-10T13:18:00Z,27.4847,-97.3181,1.175,1111122 
TCOON,ioos:station:TCOON:013:1,2017-10-10T14:18:00Z,27.4847,-97.3181,1.173,1111122 
TCOON,ioos:station:TCOON:013:1,2017-10-10T15:18:00Z,27.4847,-97.3181,1.182,1111122 
TCOON,ioos:station:TCOON:013:1,2017-10-10T16:18:00Z,27.4847,-97.3181,1.168,1111122 
TCOON,ioos:station:TCOON:013:1,2017-10-10T17:18:00Z,27.4847,-97.3181,1.178,1111122 
TCOON,ioos:station:TCOON:013:1,2017-10-10T18:18:00Z,27.4847,-97.3181,1.174,1111122 
TCOON,ioos:station:TCOON:013:1,2017-10-10T19:18:00Z,27.4847,-97.3181,1.168,1111122 
TCOON,ioos:station:TCOON:013:1,2017-10-10T20:18:00Z,27.4847,-97.3181,1.168,1111122 
TCOON,ioos:station:TCOON:013:1,2017-10-10T21:18:00Z,27.4847,-97.3181,1.156,1111122 
TCOON,ioos:station:TCOON:013:1,2017-10-10T22:18:00Z,27.4847,-97.3181,1.146,1111122 
TCOON,ioos:station:TCOON:013:1,2017-10-10T23:18:00Z,27.4847,-97.3181,1.136,1111122 
TCOON,ioos:station:TCOON:013:1,2017-10-11T00:18:00Z,27.4847,-97.3181,1.136,1111122 
TCOON,ioos:station:TCOON:013:1,2017-10-11T01:18:00Z,27.4847,-97.3181,1.13,1111122 
TCOON,ioos:station:TCOON:013:1,2017-10-11T02:18:00Z,27.4847,-97.3181,1.127,1111122 
TCOON,ioos:station:TCOON:013:1,2017-10-11T03:18:00Z,27.4847,-97.3181,1.135,1111122 
TCOON,ioos:station:TCOON:013:1,2017-10-11T04:18:00Z,27.4847,-97.3181,1.136,1111122 
TCOON,ioos:station:TCOON:013:1,2017-10-11T05:18:00Z,27.4847,-97.3181,1.145,1111122 
TCOON,ioos:station:TCOON:013:1,2017-10-11T06:18:00Z,27.4847,-97.3181,1.144,1111122 
TCOON,ioos:station:TCOON:013:1,2017-10-11T07:18:00Z,27.4847,-97.3181,1.146,1111122 
TCOON,ioos:station:TCOON:013:1,2017-10-11T08:18:00Z,27.4847,-97.3181,1.154,1111122 
TCOON,ioos:station:TCOON:013:1,2017-10-11T09:18:00Z,27.4847,-97.3181,1.163,1111122 
TCOON,ioos:station:TCOON:013:1,2017-10-11T10:18:00Z,27.4847,-97.3181,1.166,1111122 
TCOON,ioos:station:TCOON:013:1,2017-10-11T11:18:00Z,27.4847,-97.3181,1.17,1111122 
TCOON,ioos:station:TCOON:013:1,2017-10-11T12:18:00Z,27.4847,-97.3181,1.176,1111122 
TCOON,ioos:station:TCOON:013:1,2017-10-11T13:18:00Z,27.4847,-97.3181,1.181,1111122 
TCOON,ioos:station:TCOON:013:1,2017-10-11T14:18:00Z,27.4847,-97.3181,1.186,1111122 
TCOON,ioos:station:TCOON:013:1,2017-10-11T15:18:00Z,27.4847,-97.3181,1.182,1111122 
TCOON,ioos:station:TCOON:013:1,2017-10-11T16:18:00Z,27.4847,-97.3181,1.177,1111122 
TCOON,ioos:station:TCOON:013:1,2017-10-11T17:18:00Z,27.4847,-97.3181,1.174,1111122 
TCOON,ioos:station:TCOON:013:1,2017-10-11T18:18:00Z,27.4847,-97.3181,1.164,1111122 
TCOON,ioos:station:TCOON:013:1,2017-10-11T19:18:00Z,27.4847,-97.3181,1.153,1111122 
TCOON,ioos:station:TCOON:013:1,2017-10-11T20:18:00Z,27.4847,-97.3181,1.141,1111122 
TCOON,ioos:station:TCOON:013:1,2017-10-11T21:18:00Z,27.4847,-97.3181,1.126,1111122 
TCOON,ioos:station:TCOON:013:1,2017-10-11T22:18:00Z,27.4847,-97.3181,1.122,1111122 
TCOON,ioos:station:TCOON:013:1,2017-10-11T23:18:00Z,27.4847,-97.3181,1.11,1111122 
TCOON,ioos:station:TCOON:013:1,2017-10-12T00:18:00Z,27.4847,-97.3181,1.103,1111122 
TCOON,ioos:station:TCOON:013:1,2017-10-12T01:18:00Z,27.4847,-97.3181,1.103,1111122 
TCOON,ioos:station:TCOON:013:1,2017-10-12T02:18:00Z,27.4847,-97.3181,1.1,1111122 
TCOON,ioos:station:TCOON:013:1,2017-10-12T03:18:00Z,27.4847,-97.3181,1.101,1111122 
TCOON,ioos:station:TCOON:013:1,2017-10-12T04:24:00Z,27.4847,-97.3181,1.104,1111122 
TCOON,ioos:station:TCOON:013:1,2017-10-12T05:18:00Z,27.4847,-97.3181,1.106,1111122 
TCOON,ioos:station:TCOON:013:1,2017-10-12T06:18:00Z,27.4847,-97.3181,1.105,1111122 
TCOON,ioos:station:TCOON:013:1,2017-10-12T07:18:00Z,27.4847,-97.3181,1.114,1111122 
TCOON,ioos:station:TCOON:013:1,2017-10-12T08:18:00Z,27.4847,-97.3181,1.129,1111122 
TCOON,ioos:station:TCOON:013:1,2017-10-12T09:18:00Z,27.4847,-97.3181,1.139,1111122 
TCOON,ioos:station:TCOON:013:1,2017-10-12T10:18:00Z,27.4847,-97.3181,1.151,1111122 
TCOON,ioos:station:TCOON:013:1,2017-10-12T11:18:00Z,27.4847,-97.3181,1.159,1111122 
TCOON,ioos:station:TCOON:013:1,2017-10-12T12:18:00Z,27.4847,-97.3181,1.163,1111122 
TCOON,ioos:station:TCOON:013:1,2017-10-12T13:18:00Z,27.4847,-97.3181,1.167,1111122 
TCOON,ioos:station:TCOON:013:1,2017-10-12T14:18:00Z,27.4847,-97.3181,1.168,1111122 
TCOON,ioos:station:TCOON:013:1,2017-10-12T15:18:00Z,27.4847,-97.3181,1.169,1111122 
TCOON,ioos:station:TCOON:013:1,2017-10-12T16:18:00Z,27.4847,-97.3181,1.164,1111122 
TCOON,ioos:station:TCOON:013:1,2017-10-12T17:18:00Z,27.4847,-97.3181,1.159,1111122 
TCOON,ioos:station:TCOON:013:1,2017-10-12T18:18:00Z,27.4847,-97.3181,1.144,1111122 
TCOON,ioos:station:TCOON:013:1,2017-10-12T19:18:00Z,27.4847,-97.3181,1.131,1111122 
TCOON,ioos:station:TCOON:013:1,2017-10-12T20:18:00Z,27.4847,-97.3181,1.114,1111122 
TCOON,ioos:station:TCOON:013:1,2017-10-12T21:18:00Z,27.4847,-97.3181,1.105,1111122 
TCOON,ioos:station:TCOON:013:1,2017-10-12T22:18:00Z,27.4847,-97.3181,1.099,1111122 
TCOON,ioos:station:TCOON:013:1,2017-10-12T23:18:00Z,27.4847,-97.3181,1.093,1111122 
TCOON,ioos:station:TCOON:013:1,2017-10-13T00:18:00Z,27.4847,-97.3181,1.094,1111122 
TCOON,ioos:station:TCOON:013:1,2017-10-13T01:18:00Z,27.4847,-97.3181,1.095,1111122 
TCOON,ioos:station:TCOON:013:1,2017-10-13T02:18:00Z,27.4847,-97.3181,1.096,1111122 
TCOON,ioos:station:TCOON:013:1,2017-10-13T03:18:00Z,27.4847,-97.3181,1.095,1111122 
TCOON,ioos:station:TCOON:013:1,2017-10-13T04:18:00Z,27.4847,-97.3181,1.094,1111122 
TCOON,ioos:station:TCOON:013:1,2017-10-13T05:18:00Z,27.4847,-97.3181,1.092,1111122 
TCOON,ioos:station:TCOON:013:1,2017-10-13T06:18:00Z,27.4847,-97.3181,1.093,1111122 
TCOON,ioos:station:TCOON:013:1,2017-10-13T07:18:00Z,27.4847,-97.3181,1.094,1111122 
TCOON,ioos:station:TCOON:013:1,2017-10-13T08:18:00Z,27.4847,-97.3181,1.098,1111122 
TCOON,ioos:station:TCOON:013:1,2017-10-13T09:18:00Z,27.4847,-97.3181,1.106,1111122 
TCOON,ioos:station:TCOON:013:1,2017-10-13T10:18:00Z,27.4847,-97.3181,1.115,1111122 
TCOON,ioos:station:TCOON:013:1,2017-10-13T11:18:00Z,27.4847,-97.3181,1.123,1111122 
TCOON,ioos:station:TCOON:013:1,2017-10-13T12:18:00Z,27.4847,-97.3181,1.13,1111122 
TCOON,ioos:station:TCOON:013:1,2017-10-13T13:18:00Z,27.4847,-97.3181,1.135,1111122 
TCOON,ioos:station:TCOON:013:1,2017-10-13T14:18:00Z,27.4847,-97.3181,1.14,1111122 
TCOON,ioos:station:TCOON:013:1,2017-10-13T15:18:00Z,27.4847,-97.3181,1.132,1111122 
TCOON,ioos:station:TCOON:013:1,2017-10-13T16:18:00Z,27.4847,-97.3181,1.13,1111122 
TCOON,ioos:station:TCOON:013:1,2017-10-13T17:18:00Z,27.4847,-97.3181,1.122,1111122 
TCOON,ioos:station:TCOON:013:1,2017-10-13T18:18:00Z,27.4847,-97.3181,1.109,1111122 
TCOON,ioos:station:TCOON:013:1,2017-10-13T19:18:00Z,27.4847,-97.3181,1.098,1111122 
TCOON,ioos:station:TCOON:013:1,2017-10-13T20:18:00Z,27.4847,-97.3181,1.087,1111122 
TCOON,ioos:station:TCOON:013:1,2017-10-13T21:18:00Z,27.4847,-97.3181,1.079,1111122 
TCOON,ioos:station:TCOON:013:1,2017-10-13T22:18:00Z,27.4847,-97.3181,1.071,1111122 
TCOON,ioos:station:TCOON:013:1,2017-10-13T23:18:00Z,27.4847,-97.3181,1.066,1111122 
TCOON,ioos:station:TCOON:013:1,2017-10-14T00:18:00Z,27.4847,-97.3181,1.06,1111122 
TCOON,ioos:station:TCOON:013:1,2017-10-14T01:18:00Z,27.4847,-97.3181,1.057,1111122 
TCOON,ioos:station:TCOON:013:1,2017-10-14T02:18:00Z,27.4847,-97.3181,1.055,1111122 
TCOON,ioos:station:TCOON:013:1,2017-10-14T03:18:00Z,27.4847,-97.3181,1.052,1111122 
TCOON,ioos:station:TCOON:013:1,2017-10-14T04:18:00Z,27.4847,-97.3181,1.053,1111122 
TCOON,ioos:station:TCOON:013:1,2017-10-14T05:18:00Z,27.4847,-97.3181,1.051,1111122 
TCOON,ioos:station:TCOON:013:1,2017-10-14T06:18:00Z,27.4847,-97.3181,1.051,1111122 
TCOON,ioos:station:TCOON:013:1,2017-10-14T07:18:00Z,27.4847,-97.3181,1.054,1111122 
TCOON,ioos:station:TCOON:013:1,2017-10-14T08:18:00Z,27.4847,-97.3181,1.059,1111122 
TCOON,ioos:station:TCOON:013:1,2017-10-14T09:18:00Z,27.4847,-97.3181,1.068,1111122 
TCOON,ioos:station:TCOON:013:1,2017-10-14T10:18:00Z,27.4847,-97.3181,1.078,1111122 
TCOON,ioos:station:TCOON:013:1,2017-10-14T11:18:00Z,27.4847,-97.3181,1.091,1111122 
TCOON,ioos:station:TCOON:013:1,2017-10-14T12:18:00Z,27.4847,-97.3181,1.104,1111122 
TCOON,ioos:station:TCOON:013:1,2017-10-14T13:18:00Z,27.4847,-97.3181,1.114,1111122 
TCOON,ioos:station:TCOON:013:1,2017-10-14T14:18:00Z,27.4847,-97.3181,1.119,1111122 
TCOON,ioos:station:TCOON:013:1,2017-10-14T15:18:00Z,27.4847,-97.3181,1.12,1111122 
TCOON,ioos:station:TCOON:013:1,2017-10-14T16:18:00Z,27.4847,-97.3181,1.118,1111122 
TCOON,ioos:station:TCOON:013:1,2017-10-14T17:18:00Z,27.4847,-97.3181,1.112,1111122 
TCOON,ioos:station:TCOON:013:1,2017-10-14T18:18:00Z,27.4847,-97.3181,1.103,1111122 
TCOON,ioos:station:TCOON:013:1,2017-10-14T19:18:00Z,27.4847,-97.3181,1.094,1111122 
TCOON,ioos:station:TCOON:013:1,2017-10-14T20:18:00Z,27.4847,-97.3181,1.085,1111122 
TCOON,ioos:station:TCOON:013:1,2017-10-14T21:18:00Z,27.4847,-97.3181,1.076,1111122 
TCOON,ioos:station:TCOON:013:1,2017-10-14T22:18:00Z,27.4847,-97.3181,1.069,1111122 
TCOON,ioos:station:TCOON:013:1,2017-10-14T23:18:00Z,27.4847,-97.3181,1.064,1111122 
TCOON,ioos:station:TCOON:013:1,2017-10-15T00:18:00Z,27.4847,-97.3181,1.061,1111122 
TCOON,ioos:station:TCOON:013:1,2017-10-15T01:18:00Z,27.4847,-97.3181,1.059,1111122 
TCOON,ioos:station:TCOON:013:1,2017-10-15T02:18:00Z,27.4847,-97.3181,1.058,1111122 
TCOON,ioos:station:TCOON:013:1,2017-10-15T03:18:00Z,27.4847,-97.3181,1.056,1111122 
TCOON,ioos:station:TCOON:013:1,2017-10-15T04:18:00Z,27.4847,-97.3181,1.055,1111122 
TCOON,ioos:station:TCOON:013:1,2017-10-15T05:18:00Z,27.4847,-97.3181,1.055,1111122 
TCOON,ioos:station:TCOON:013:1,2017-10-15T06:18:00Z,27.4847,-97.3181,1.053,1111122 
TCOON,ioos:station:TCOON:013:1,2017-10-15T07:18:00Z,27.4847,-97.3181,1.051,1111122 
TCOON,ioos:station:TCOON:013:1,2017-10-15T08:18:00Z,27.4847,-97.3181,1.052,1111122 
TCOON,ioos:station:TCOON:013:1,2017-10-15T09:18:00Z,27.4847,-97.3181,1.055,1111122 
TCOON,ioos:station:TCOON:013:1,2017-10-15T10:18:00Z,27.4847,-97.3181,1.067,1111122 
TCOON,ioos:station:TCOON:013:1,2017-10-15T11:18:00Z,27.4847,-97.3181,1.075,1111122 
TCOON,ioos:station:TCOON:013:1,2017-10-15T12:18:00Z,27.4847,-97.3181,1.086,1111122 
TCOON,ioos:station:TCOON:013:1,2017-10-15T13:18:00Z,27.4847,-97.3181,1.095,1111122 
TCOON,ioos:station:TCOON:013:1,2017-10-15T14:18:00Z,27.4847,-97.3181,1.099,1111122 
TCOON,ioos:station:TCOON:013:1,2017-10-15T15:18:00Z,27.4847,-97.3181,1.099,1111122 
TCOON,ioos:station:TCOON:013:1,2017-10-15T16:18:00Z,27.4847,-97.3181,1.092,1111122 
TCOON,ioos:station:TCOON:013:1,2017-10-15T17:18:00Z,27.4847,-97.3181,1.089,1111122 
TCOON,ioos:station:TCOON:013:1,2017-10-15T18:18:00Z,27.4847,-97.3181,1.088,1111122 
TCOON,ioos:station:TCOON:013:1,2017-10-15T19:18:00Z,27.4847,-97.3181,1.084,1111122 
TCOON,ioos:station:TCOON:013:1,2017-10-15T20:18:00Z,27.4847,-97.3181,1.079,1111122 
TCOON,ioos:station:TCOON:013:1,2017-10-15T21:18:00Z,27.4847,-97.3181,1.078,1111122 
TCOON,ioos:station:TCOON:013:1,2017-10-15T22:18:00Z,27.4847,-97.3181,1.08,1111122 
TCOON,ioos:station:TCOON:013:1,2017-10-15T23:18:00Z,27.4847,-97.3181,1.088,1111122 
TCOON,ioos:station:TCOON:013:1,2017-10-16T00:18:00Z,27.4847,-97.3181,1.096,1111122 
TCOON,ioos:station:TCOON:013:1,2017-10-16T01:18:00Z,27.4847,-97.3181,1.1,1111122 
TCOON,ioos:station:TCOON:013:1,2017-10-16T02:18:00Z,27.4847,-97.3181,1.103,1111122 
TCOON,ioos:station:TCOON:013:1,2017-10-16T03:18:00Z,27.4847,-97.3181,1.098,1111122 
TCOON,ioos:station:TCOON:013:1,2017-10-16T04:18:00Z,27.4847,-97.3181,1.095,1111122 
TCOON,ioos:station:TCOON:013:1,2017-10-16T05:18:00Z,27.4847,-97.3181,1.097,1111122 
TCOON,ioos:station:TCOON:013:1,2017-10-16T06:18:00Z,27.4847,-97.3181,1.088,1111122 
TCOON,ioos:station:TCOON:013:1,2017-10-16T07:18:00Z,27.4847,-97.3181,1.09,1111122 
TCOON,ioos:station:TCOON:013:1,2017-10-16T08:18:00Z,27.4847,-97.3181,1.085,1111122 
TCOON,ioos:station:TCOON:013:1,2017-10-16T09:18:00Z,27.4847,-97.3181,1.091,1111122 
TCOON,ioos:station:TCOON:013:1,2017-10-16T10:18:00Z,27.4847,-97.3181,1.096,1111122 
TCOON,ioos:station:TCOON:013:1,2017-10-16T11:18:00Z,27.4847,-97.3181,1.102,1111122 
TCOON,ioos:station:TCOON:013:1,2017-10-16T12:18:00Z,27.4847,-97.3181,1.103,1111122 
TCOON,ioos:station:TCOON:013:1,2017-10-16T13:18:00Z,27.4847,-97.3181,1.1,1111122 
TCOON,ioos:station:TCOON:013:1,2017-10-16T14:18:00Z,27.4847,-97.3181,1.1,1111122 
TCOON,ioos:station:TCOON:013:1,2017-10-16T15:18:00Z,27.4847,-97.3181,1.101,1111122 
TCOON,ioos:station:TCOON:013:1,2017-10-16T16:18:00Z,27.4847,-97.3181,1.1,1111122 
TCOON,ioos:station:TCOON:013:1,2017-10-16T17:18:00Z,27.4847,-97.3181,1.1,1111122 
TCOON,ioos:station:TCOON:013:1,2017-10-16T18:18:00Z,27.4847,-97.3181,1.096,1111122 
TCOON,ioos:station:TCOON:013:1,2017-10-16T19:18:00Z,27.4847,-97.3181,1.095,1111122 
TCOON,ioos:station:TCOON:013:1,2017-10-16T20:18:00Z,27.4847,-97.3181,1.09,1111122 
TCOON,ioos:station:TCOON:013:1,2017-10-16T21:18:00Z,27.4847,-97.3181,1.085,1111122 
TCOON,ioos:station:TCOON:013:1,2017-10-16T22:18:00Z,27.4847,-97.3181,1.089,1111122 
TCOON,ioos:station:TCOON:013:1,2017-10-16T23:18:00Z,27.4847,-97.3181,1.09,1111122 
TCOON,ioos:station:TCOON:013:1,2017-10-17T00:18:00Z,27.4847,-97.3181,1.089,1111122 
TCOON,ioos:station:TCOON:013:1,2017-10-17T01:18:00Z,27.4847,-97.3181,1.089,1111122 
TCOON,ioos:station:TCOON:013:1,2017-10-17T02:18:00Z,27.4847,-97.3181,1.084,1111122 
TCOON,ioos:station:TCOON:013:1,2017-10-17T03:18:00Z,27.4847,-97.3181,1.083,1111122 
TCOON,ioos:station:TCOON:013:1,2017-10-17T04:18:00Z,27.4847,-97.3181,1.078,1111122 
TCOON,ioos:station:TCOON:013:1,2017-10-17T05:18:00Z,27.4847,-97.3181,1.074,1111122 
TCOON,ioos:station:TCOON:013:1,2017-10-17T06:18:00Z,27.4847,-97.3181,1.069,1111122 
TCOON,ioos:station:TCOON:013:1,2017-10-17T07:18:00Z,27.4847,-97.3181,1.068,1111122 
TCOON,ioos:station:TCOON:013:1,2017-10-17T08:18:00Z,27.4847,-97.3181,1.07,1111122 
TCOON,ioos:station:TCOON:013:1,2017-10-17T09:18:00Z,27.4847,-97.3181,1.073,1111122 
TCOON,ioos:station:TCOON:013:1,2017-10-17T10:18:00Z,27.4847,-97.3181,1.079,1111122 
TCOON,ioos:station:TCOON:013:1,2017-10-17T11:18:00Z,27.4847,-97.3181,1.08,1111122 
TCOON,ioos:station:TCOON:013:1,2017-10-17T12:18:00Z,27.4847,-97.3181,1.087,1111122 
TCOON,ioos:station:TCOON:013:1,2017-10-17T13:18:00Z,27.4847,-97.3181,1.091,1111122 
TCOON,ioos:station:TCOON:013:1,2017-10-17T14:18:00Z,27.4847,-97.3181,1.095,1111122 
TCOON,ioos:station:TCOON:013:1,2017-10-17T15:18:00Z,27.4847,-97.3181,1.092,1111122 
TCOON,ioos:station:TCOON:013:1,2017-10-17T16:18:00Z,27.4847,-97.3181,1.089,1111122 
TCOON,ioos:station:TCOON:013:1,2017-10-17T17:18:00Z,27.4847,-97.3181,1.087,1111122 
TCOON,ioos:station:TCOON:013:1,2017-10-17T18:18:00Z,27.4847,-97.3181,1.084,1111122 
TCOON,ioos:station:TCOON:013:1,2017-10-17T19:18:00Z,27.4847,-97.3181,1.077,1111122 
TCOON,ioos:station:TCOON:013:1,2017-10-17T20:18:00Z,27.4847,-97.3181,1.074,1111122 
TCOON,ioos:station:TCOON:013:1,2017-10-17T21:18:00Z,27.4847,-97.3181,1.074,1111122 
TCOON,ioos:station:TCOON:013:1,2017-10-17T22:18:00Z,27.4847,-97.3181,1.07,1111122 
TCOON,ioos:station:TCOON:013:1,2017-10-17T23:18:00Z,27.4847,-97.3181,1.073,1111122 
TCOON,ioos:station:TCOON:013:1,2017-10-18T00:18:00Z,27.4847,-97.3181,1.075,1111122 
TCOON,ioos:station:TCOON:013:1,2017-10-18T01:18:00Z,27.4847,-97.3181,1.079,1111122 
TCOON,ioos:station:TCOON:013:1,2017-10-18T02:18:00Z,27.4847,-97.3181,1.085,1111122 
TCOON,ioos:station:TCOON:013:1,2017-10-18T03:18:00Z,27.4847,-97.3181,1.092,1111122 
TCOON,ioos:station:TCOON:013:1,2017-10-18T04:18:00Z,27.4847,-97.3181,1.093,1111122 
TCOON,ioos:station:TCOON:013:1,2017-10-18T05:18:00Z,27.4847,-97.3181,1.092,1111122 
TCOON,ioos:station:TCOON:013:1,2017-10-18T06:18:00Z,27.4847,-97.3181,1.091,1111122 
TCOON,ioos:station:TCOON:013:1,2017-10-18T07:18:00Z,27.4847,-97.3181,1.089,1111122 
TCOON,ioos:station:TCOON:013:1,2017-10-18T08:18:00Z,27.4847,-97.3181,1.087,1111122 
TCOON,ioos:station:TCOON:013:1,2017-10-18T09:18:00Z,27.4847,-97.3181,1.089,1111122 
TCOON,ioos:station:TCOON:013:1,2017-10-18T10:18:00Z,27.4847,-97.3181,1.09,1111122 
TCOON,ioos:station:TCOON:013:1,2017-10-18T11:18:00Z,27.4847,-97.3181,1.088,1111122 
TCOON,ioos:station:TCOON:013:1,2017-10-18T12:18:00Z,27.4847,-97.3181,1.089,1111122 
TCOON,ioos:station:TCOON:013:1,2017-10-18T13:18:00Z,27.4847,-97.3181,1.093,1111122 
TCOON,ioos:station:TCOON:013:1,2017-10-18T14:18:00Z,27.4847,-97.3181,1.086,1111122 
TCOON,ioos:station:TCOON:013:1,2017-10-18T15:18:00Z,27.4847,-97.3181,1.082,1111122 
TCOON,ioos:station:TCOON:013:1,2017-10-18T16:18:00Z,27.4847,-97.3181,1.075,1111122 
TCOON,ioos:station:TCOON:013:1,2017-10-18T17:18:00Z,27.4847,-97.3181,1.069,1111122 
TCOON,ioos:station:TCOON:013:1,2017-10-18T18:18:00Z,27.4847,-97.3181,1.064,1111122 
TCOON,ioos:station:TCOON:013:1,2017-10-18T19:18:00Z,27.4847,-97.3181,1.058,1111122 
TCOON,ioos:station:TCOON:013:1,2017-10-18T20:18:00Z,27.4847,-97.3181,1.05,1111122 
TCOON,ioos:station:TCOON:013:1,2017-10-18T21:18:00Z,27.4847,-97.3181,1.042,1111122 
TCOON,ioos:station:TCOON:013:1,2017-10-18T22:18:00Z,27.4847,-97.3181,1.042,1111122 
TCOON,ioos:station:TCOON:013:1,2017-10-18T23:18:00Z,27.4847,-97.3181,1.039,1111122 
TCOON,ioos:station:TCOON:013:1,2017-10-19T00:18:00Z,27.4847,-97.3181,1.041,1111122 
TCOON,ioos:station:TCOON:013:1,2017-10-19T01:18:00Z,27.4847,-97.3181,1.046,1111122 
TCOON,ioos:station:TCOON:013:1,2017-10-19T02:18:00Z,27.4847,-97.3181,1.052,1111122 
TCOON,ioos:station:TCOON:013:1,2017-10-19T03:18:00Z,27.4847,-97.3181,1.057,1111122 
TCOON,ioos:station:TCOON:013:1,2017-10-19T04:18:00Z,27.4847,-97.3181,1.06,1111122 
TCOON,ioos:station:TCOON:013:1,2017-10-19T05:18:00Z,27.4847,-97.3181,1.061,1111122 
TCOON,ioos:station:TCOON:013:1,2017-10-19T06:18:00Z,27.4847,-97.3181,1.06,1111122 
TCOON,ioos:station:TCOON:013:1,2017-10-19T07:18:00Z,27.4847,-97.3181,1.059,1111122 
TCOON,ioos:station:TCOON:013:1,2017-10-19T08:18:00Z,27.4847,-97.3181,1.058,1111122 
TCOON,ioos:station:TCOON:013:1,2017-10-19T09:12:00Z,27.4847,-97.3181,1.057,1111122 
TCOON,ioos:station:TCOON:013:1,2017-10-19T10:12:00Z,27.4847,-97.3181,1.056,1111122 
TCOON,ioos:station:TCOON:013:1,2017-10-19T11:12:00Z,27.4847,-97.3181,1.057,1111122 
TCOON,ioos:station:TCOON:013:1,2017-10-19T12:18:00Z,27.4847,-97.3181,1.056,1111122 
TCOON,ioos:station:TCOON:013:1,2017-10-19T13:18:00Z,27.4847,-97.3181,1.055,1111122 
TCOON,ioos:station:TCOON:013:1,2017-10-19T14:18:00Z,27.4847,-97.3181,1.05,1111122 
TCOON,ioos:station:TCOON:013:1,2017-10-19T15:18:00Z,27.4847,-97.3181,1.046,1111122 
TCOON,ioos:station:TCOON:013:1,2017-10-19T16:18:00Z,27.4847,-97.3181,1.041,1111122 
TCOON,ioos:station:TCOON:013:1,2017-10-19T17:18:00Z,27.4847,-97.3181,1.033,1111122 
TCOON,ioos:station:TCOON:013:1,2017-10-19T18:18:00Z,27.4847,-97.3181,1.029,1111122 
TCOON,ioos:station:TCOON:013:1,2017-10-19T19:18:00Z,27.4847,-97.3181,1.021,1111122 
TCOON,ioos:station:TCOON:013:1,2017-10-19T20:18:00Z,27.4847,-97.3181,1.021,1111122 
TCOON,ioos:station:TCOON:013:1,2017-10-19T21:18:00Z,27.4847,-97.3181,1.006,1111122 
TCOON,ioos:station:TCOON:013:1,2017-10-19T22:18:00Z,27.4847,-97.3181,1.007,1111122 
TCOON,ioos:station:TCOON:013:1,2017-10-19T23:18:00Z,27.4847,-97.3181,1.005,1111122 
TCOON,ioos:station:TCOON:013:1,2017-10-20T00:18:00Z,27.4847,-97.3181,1.008,1111122 
TCOON,ioos:station:TCOON:013:1,2017-10-20T01:18:00Z,27.4847,-97.3181,1.014,1111122 
TCOON,ioos:station:TCOON:013:1,2017-10-20T02:18:00Z,27.4847,-97.3181,1.018,1111122 
TCOON,ioos:station:TCOON:013:1,2017-10-20T03:18:00Z,27.4847,-97.3181,1.025,1111122 
TCOON,ioos:station:TCOON:013:1,2017-10-20T04:18:00Z,27.4847,-97.3181,1.032,1111122 
TCOON,ioos:station:TCOON:013:1,2017-10-20T05:18:00Z,27.4847,-97.3181,1.044,1111122 
TCOON,ioos:station:TCOON:013:1,2017-10-20T06:18:00Z,27.4847,-97.3181,1.068,1111122 
TCOON,ioos:station:TCOON:013:1,2017-10-20T07:18:00Z,27.4847,-97.3181,1.079,1111122 
TCOON,ioos:station:TCOON:013:1,2017-10-20T08:18:00Z,27.4847,-97.3181,1.088,1111122 
TCOON,ioos:station:TCOON:013:1,2017-10-20T09:18:00Z,27.4847,-97.3181,1.096,1111122 
TCOON,ioos:station:TCOON:013:1,2017-10-20T10:18:00Z,27.4847,-97.3181,1.095,1111122 
TCOON,ioos:station:TCOON:013:1,2017-10-20T11:18:00Z,27.4847,-97.3181,1.097,1111122 
TCOON,ioos:station:TCOON:013:1,2017-10-20T12:18:00Z,27.4847,-97.3181,1.091,1111122 
TCOON,ioos:station:TCOON:013:1,2017-10-20T13:18:00Z,27.4847,-97.3181,1.082,1111122 
TCOON,ioos:station:TCOON:013:1,2017-10-20T14:18:00Z,27.4847,-97.3181,1.069,1111122 
TCOON,ioos:station:TCOON:013:1,2017-10-20T15:18:00Z,27.4847,-97.3181,1.057,1111122 
TCOON,ioos:station:TCOON:013:1,2017-10-20T16:18:00Z,27.4847,-97.3181,1.047,1111122 
TCOON,ioos:station:TCOON:013:1,2017-10-20T17:18:00Z,27.4847,-97.3181,1.041,1111122 
TCOON,ioos:station:TCOON:013:1,2017-10-20T18:18:00Z,27.4847,-97.3181,1.039,1111122 
TCOON,ioos:station:TCOON:013:1,2017-10-20T19:18:00Z,27.4847,-97.3181,1.037,1111122 
TCOON,ioos:station:TCOON:013:1,2017-10-20T20:18:00Z,27.4847,-97.3181,1.032,1111122 
TCOON,ioos:station:TCOON:013:1,2017-10-20T21:18:00Z,27.4847,-97.3181,1.029,1111122 
TCOON,ioos:station:TCOON:013:1,2017-10-20T22:18:00Z,27.4847,-97.3181,1.024,1111122 
TCOON,ioos:station:TCOON:013:1,2017-10-20T23:18:00Z,27.4847,-97.3181,1.019,1111122 
TCOON,ioos:station:TCOON:013:1,2017-10-21T00:18:00Z,27.4847,-97.3181,1.015,1111122 
TCOON,ioos:station:TCOON:013:1,2017-10-21T01:18:00Z,27.4847,-97.3181,1.024,1111122 
TCOON,ioos:station:TCOON:013:1,2017-10-21T02:18:00Z,27.4847,-97.3181,1.033,1111122 
TCOON,ioos:station:TCOON:013:1,2017-10-21T03:18:00Z,27.4847,-97.3181,1.049,1111122 
TCOON,ioos:station:TCOON:013:1,2017-10-21T04:18:00Z,27.4847,-97.3181,1.067,1111122 
TCOON,ioos:station:TCOON:013:1,2017-10-21T05:18:00Z,27.4847,-97.3181,1.077,1111122 
TCOON,ioos:station:TCOON:013:1,2017-10-21T06:18:00Z,27.4847,-97.3181,1.087,1111122 